Volver al catálogo

KUIPER-00609

ActivoComunicacionesLEO
NORAD 69770·PAYLOAD·🇺🇸 United States

Lanzado Jul 2, 2026 desde Cape Canaveral Space Force Station

Loading…

Próximos Pases (próximas 24 horas)

TLE

ActualizadoSource: CelesTrak SupGP

Época: Sep 14, 2026, 16:58 UTC

1 69770C 26151H   26257.70736111 -.00000885  00000+0 -12526-3 0  2570
2 69770  51.9004 251.9957 0002135  19.9326 252.7009 14.76610803    11

Sigue KUIPER-00609 en tiempo real con AllMySat

Download on the App Store